Terug naar catalogus

SL-8 R/B

ActiefPO
NORAD 24955·ROCKET BODY·🇷🇺 Russia

Gelanceerd Sep 23, 1997 vanaf Plesetsk Cosmodrome

Loading…

Volgende Passages (komende 24 uur)

TLE

VersSource: Space-Track

Epoch: Sep 14, 2026, 10:04 UTC

1 24955U 97052C   26257.41993839  .00000186  00000-0  15849-3 0  9991
2 24955  82.9157 254.6069 0028944 335.0459  24.9300 13.81948822460731

Volg SL-8 R/B in realtime met AllMySat

Download on the App Store